contact:dominique.lefevre@mio.osupytheas.fr, maurice.libes@osupytheas.fr, didier.mallarino@osupytheas.fr
Project:EMSO http://www.emso-fr.org/EMSO-France
Depth: 2436.0 m
Title:EMSO Ligure Ouest : Data MII capteur AQUADOPP
Date,Latitude,Longitude,X_East,Y_North,Z_Up,Amplitude_X,Amplitude_Y,Amplitude_Z,Batterie,SoundSpeed,Heading,Pitch,Roll,Pressure,TIS,Speed,Direction
, degrees North, degrees East, m.s-1, m.s-1,m.s-1, 1, 1, 1, Volt, m.s-1, degree, degree, degree, dbar, degree_C, m.s-1, degree
2020-05-23T00:04:03,42.805,6.029,-0.009,0.004,-0.045,102.0,105.0,101.0,13.4,1505.3,326.3,-0.7,1.8,2470.409,13.31,0.009,294.0
2020-05-23T00:07:03,42.805,6.029,0.01,-0.002,0.0,103.0,106.0,101.0,13.4,1505.3,326.9,-0.7,1.8,2470.331,13.32,0.01,101.3
2020-05-23T00:10:03,42.805,6.029,0.016,-0.005,-0.019,103.0,104.0,103.0,13.4,1505.3,328.1,-0.8,1.9,2470.385,13.32,0.016,107.4
2020-05-23T00:13:03,42.805,6.029,0.028,0.011,0.0,104.0,104.0,101.0,13.4,1505.3,328.2,-0.7,1.8,2470.369,13.33,0.03,68.6
2020-05-23T00:16:03,42.805,6.029,-0.011,0.002,-0.031,103.0,105.0,101.0,13.3,1505.3,327.9,-0.7,1.8,2470.316,13.33,0.011,280.3
2020-05-23T00:19:03,42.805,6.029,0.0,-0.011,0.005,102.0,104.0,102.0,13.4,1505.3,328.0,-0.7,1.8,2470.388,13.33,0.011,180.0
2020-05-23T00:22:03,42.805,6.029,0.003,-0.009,-0.024,103.0,105.0,101.0,13.4,1505.3,324.0,-0.7,1.8,2470.375,13.33,0.009,161.6
2020-05-23T00:25:03,42.805,6.029,-0.001,-0.004,-0.014,103.0,104.0,100.0,13.4,1505.3,327.7,-0.7,1.8,2470.341,13.33,0.004,194.0
2020-05-23T00:28:03,42.805,6.029,0.034,0.009,0.015,103.0,105.0,101.0,13.3,1505.3,326.6,-0.7,1.8,2470.36,13.33,0.035,75.2
2020-05-23T00:31:03,42.805,6.029,0.026,0.004,-0.015,103.0,105.0,100.0,13.3,1505.3,323.5,-0.7,1.8,2470.348,13.33,0.026,81.3
2020-05-23T00:34:03,42.805,6.029,-0.005,0.008,-0.018,103.0,104.0,102.0,13.3,1505.3,326.7,-0.7,1.8,2470.352,13.33,0.009,328.0
2020-05-23T00:37:03,42.805,6.029,-0.011,-0.01,-0.041,103.0,106.0,101.0,13.4,1505.3,323.5,-0.7,1.8,2470.355,13.33,0.014,227.7
2020-05-23T00:40:03,42.805,6.029,0.026,-0.017,-0.005,102.0,107.0,101.0,13.4,1505.3,325.2,-0.7,1.9,2470.379,13.33,0.031,123.2
2020-05-23T00:43:03,42.805,6.029,0.009,-0.026,-0.031,103.0,108.0,101.0,13.3,1505.3,324.3,-0.7,1.8,2470.33,13.33,0.027,160.9
2020-05-23T00:49:03,42.805,6.029,-0.014,0.002,-0.011,104.0,106.0,102.0,13.3,1505.3,326.9,-0.8,1.9,2470.384,13.31,0.014,278.1
2020-05-23T00:52:03,42.805,6.029,-0.008,0.0,-0.06,102.0,106.0,102.0,13.4,1505.3,326.5,-0.7,1.8,2470.365,13.32,0.008,270.0
2020-05-23T00:55:03,42.805,6.029,0.0,-0.004,-0.054,103.0,107.0,102.0,13.4,1505.3,324.0,-0.7,1.8,2470.322,13.32,0.004,180.0
2020-05-23T00:58:03,42.805,6.029,-0.003,-0.014,-0.038,103.0,105.0,100.0,13.4,1505.3,326.5,-0.7,1.8,2470.343,13.33,0.014,192.1
2020-05-23T01:04:03,42.805,6.029,-0.01,-0.005,-0.051,104.0,106.0,102.0,13.4,1505.3,324.4,-0.7,1.8,2470.384,13.31,0.011,243.4
2020-05-23T01:07:04,42.805,6.029,-0.014,-0.004,-0.032,103.0,107.0,101.0,13.3,1505.3,326.6,-0.7,1.8,2470.34,13.32,0.014,254.1
2020-05-23T01:10:03,42.805,6.029,-0.011,-0.002,-0.031,102.0,105.0,101.0,13.3,1505.3,323.5,-0.7,1.8,2470.362,13.32,0.011,259.7
2020-05-23T01:13:03,42.805,6.029,-0.028,0.006,-0.047,105.0,105.0,100.0,13.4,1505.3,324.8,-0.7,1.9,2470.341,13.33,0.028,282.1
2020-05-23T01:16:03,42.805,6.029,-0.012,-0.012,-0.054,104.0,105.0,101.0,13.4,1505.3,323.8,-0.7,1.8,2470.364,13.33,0.016,225.0
2020-05-23T01:19:03,42.805,6.029,-0.017,-0.003,-0.051,104.0,106.0,102.0,13.4,1505.3,324.7,-0.7,1.8,2470.359,13.33,0.017,260.0
2020-05-23T01:22:03,42.805,6.029,-0.027,-0.005,-0.028,104.0,104.0,102.0,13.4,1505.3,324.3,-0.7,1.8,2470.32,13.33,0.027,259.5
2020-05-23T01:25:03,42.805,6.029,-0.018,0.006,-0.043,103.0,105.0,101.0,13.3,1505.3,326.6,-0.7,1.8,2470.373,13.33,0.018,288.4
2020-05-23T01:28:03,42.805,6.029,-0.031,-0.018,-0.036,104.0,106.0,102.0,13.4,1505.3,326.9,-0.7,1.8,2470.293,13.33,0.035,239.9
2020-05-23T01:31:03,42.805,6.029,-0.007,-0.002,-0.046,103.0,106.0,102.0,13.3,1505.3,327.1,-0.7,1.8,2470.302,13.33,0.007,254.1
2020-05-23T01:34:03,42.805,6.029,-0.001,-0.002,-0.037,105.0,103.0,102.0,13.4,1505.3,325.8,-0.7,1.9,2470.316,13.33,0.002,206.6
2020-05-23T01:37:03,42.805,6.029,-0.001,-0.004,-0.033,103.0,106.0,101.0,13.3,1505.3,327.6,-0.7,1.8,2470.307,13.33,0.004,194.0
2020-05-23T01:40:03,42.805,6.029,-0.012,-0.002,-0.034,104.0,106.0,102.0,13.4,1505.3,324.0,-0.7,1.9,2470.309,13.33,0.012,260.5
2020-05-23T01:43:03,42.805,6.029,-0.002,-0.008,-0.036,104.0,108.0,103.0,13.4,1505.3,327.8,-0.7,1.9,2470.309,13.33,0.008,194.0
2020-05-23T01:46:03,42.805,6.029,0.012,0.003,-0.025,105.0,106.0,101.0,13.4,1505.3,327.6,-0.7,1.9,2470.316,13.33,0.012,76.0
2020-05-23T01:49:03,42.805,6.029,-0.036,0.005,-0.075,104.0,104.0,102.0,13.4,1505.4,325.5,-0.7,1.8,2470.332,13.34,0.036,277.9
2020-05-23T01:52:03,42.805,6.029,-0.006,0.007,-0.023,105.0,106.0,101.0,13.4,1505.3,324.2,-0.7,1.8,2470.292,13.33,0.009,319.4
2020-05-23T01:55:03,42.805,6.029,-0.003,-0.004,-0.011,106.0,106.0,101.0,13.4,1505.4,323.2,-0.7,1.9,2470.316,13.34,0.005,216.9
2020-05-23T01:58:03,42.805,6.029,-0.019,0.005,-0.031,104.0,106.0,102.0,13.4,1505.4,326.1,-0.7,1.9,2470.348,13.34,0.019,284.7
2020-05-23T02:04:03,42.805,6.029,-0.001,0.017,0.0,105.0,106.0,101.0,13.3,1505.3,325.7,-0.8,1.8,2470.353,13.32,0.017,356.6
2020-05-23T02:07:03,42.805,6.029,-0.004,0.032,-0.032,105.0,104.0,101.0,13.4,1505.3,327.4,-0.7,1.9,2470.347,13.32,0.032,352.9
2020-05-23T02:10:03,42.805,6.029,-0.019,0.0,-0.034,104.0,108.0,102.0,13.4,1505.3,326.6,-0.7,1.8,2470.326,13.33,0.019,270.0
2020-05-23T02:13:03,42.805,6.029,-0.008,-0.002,-0.024,104.0,107.0,102.0,13.4,1505.3,327.0,-0.6,1.8,2470.355,13.33,0.008,256.0
2020-05-23T02:16:03,42.805,6.029,0.007,0.018,0.006,103.0,105.0,101.0,13.4,1505.3,326.8,-0.7,1.8,2470.306,13.33,0.019,21.2
2020-05-23T02:19:03,42.805,6.029,-0.008,0.019,-0.022,106.0,105.0,102.0,13.4,1505.3,326.7,-0.7,1.8,2470.348,13.33,0.02,337.2
2020-05-23T02:22:03,42.805,6.029,0.014,0.022,-0.018,104.0,105.0,102.0,13.4,1505.3,326.7,-0.7,1.8,2470.312,13.33,0.026,32.5
2020-05-23T02:25:03,42.805,6.029,-0.014,0.006,-0.019,104.0,105.0,101.0,13.3,1505.3,326.4,-0.7,1.8,2470.317,13.33,0.015,293.2
2020-05-23T02:28:03,42.805,6.029,-0.012,0.015,-0.048,104.0,104.0,102.0,13.4,1505.3,326.7,-0.7,1.8,2470.302,13.33,0.019,321.3
2020-05-23T02:31:03,42.805,6.029,0.001,0.015,-0.025,104.0,105.0,102.0,13.3,1505.3,324.2,-0.7,1.9,2470.317,13.33,0.015,3.8
2020-05-23T02:34:03,42.805,6.029,-0.034,-0.002,-0.034,104.0,105.0,102.0,13.3,1505.3,323.3,-0.7,1.8,2470.301,13.33,0.034,266.6
2020-05-23T02:37:03,42.805,6.029,-0.022,0.002,-0.028,106.0,106.0,103.0,13.3,1505.3,325.6,-0.7,1.8,2470.278,13.33,0.022,275.2
2020-05-23T02:40:03,42.805,6.029,-0.037,0.008,-0.041,104.0,105.0,101.0,13.4,1505.3,327.4,-0.7,1.8,2470.311,13.33,0.037,282.2
2020-05-23T02:43:03,42.805,6.029,-0.018,0.043,-0.013,104.0,106.0,102.0,13.4,1505.3,326.6,-0.7,1.8,2470.287,13.33,0.046,337.3
2020-05-23T02:46:03,42.805,6.029,-0.001,0.0,-0.017,105.0,105.0,103.0,13.3,1505.3,326.4,-0.7,1.8,2470.319,13.33,0.001,270.0
2020-05-23T02:49:03,42.805,6.029,-0.017,0.0,-0.026,104.0,105.0,101.0,13.4,1505.3,326.8,-0.7,1.9,2470.322,13.33,0.017,270.0
2020-05-23T02:52:03,42.805,6.029,-0.019,0.01,-0.002,103.0,105.0,102.0,13.4,1505.4,323.6,-0.7,1.8,2470.337,13.34,0.021,297.8
2020-05-23T02:55:03,42.805,6.029,-0.018,0.02,-0.019,103.0,108.0,101.0,13.4,1505.4,326.6,-0.7,1.8,2470.331,13.34,0.026,318.0
2020-05-23T02:58:03,42.805,6.029,-0.034,0.017,-0.036,104.0,107.0,101.0,13.4,1505.4,326.1,-0.7,1.8,2470.312,13.34,0.038,296.6
2020-05-23T03:04:03,42.805,6.029,-0.039,0.0,-0.052,104.0,106.0,102.0,13.3,1505.3,325.2,-0.7,1.9,2470.308,13.32,0.039,270.0
2020-05-23T03:07:03,42.805,6.029,-0.016,-0.007,-0.039,105.0,107.0,101.0,13.4,1505.3,324.7,-0.7,1.9,2470.343,13.33,0.017,246.4
2020-05-23T03:13:03,42.805,6.029,-0.02,0.006,-0.033,103.0,107.0,101.0,13.4,1505.3,323.7,-0.7,1.8,2470.382,13.32,0.02,286.7
2020-05-23T03:16:03,42.805,6.029,-0.032,0.021,-0.018,103.0,107.0,101.0,13.4,1505.3,325.0,-0.7,1.8,2470.363,13.33,0.038,303.3
2020-05-23T03:19:03,42.805,6.029,-0.026,0.012,-0.023,106.0,105.0,101.0,13.4,1505.3,324.7,-0.7,1.8,2470.369,13.33,0.028,294.8
2020-05-23T03:22:03,42.805,6.029,-0.01,0.014,-0.011,103.0,105.0,102.0,13.4,1505.4,326.3,-0.7,1.8,2470.357,13.34,0.017,324.5
2020-05-23T03:25:03,42.805,6.029,0.003,0.02,0.013,105.0,106.0,102.0,13.4,1505.4,326.0,-0.7,1.9,2470.318,13.34,0.02,8.5
2020-05-23T03:28:03,42.805,6.029,-0.011,0.022,-0.002,103.0,106.0,101.0,13.4,1505.4,327.0,-0.7,1.8,2470.285,13.34,0.024,333.4
2020-05-23T03:31:03,42.805,6.029,-0.009,0.025,-0.011,104.0,104.0,103.0,13.3,1505.4,325.3,-0.7,1.8,2470.31,13.34,0.026,340.2
2020-05-23T03:34:03,42.805,6.029,-0.009,0.017,-0.043,104.0,105.0,102.0,13.4,1505.4,326.6,-0.7,1.8,2470.336,13.35,0.019,332.1
2020-05-23T03:37:03,42.805,6.029,0.01,0.024,0.004,105.0,105.0,100.0,13.4,1505.4,326.7,-0.7,1.8,2470.321,13.35,0.026,22.6
2020-05-23T03:40:03,42.805,6.029,0.002,0.024,-0.011,104.0,106.0,102.0,13.4,1505.4,326.6,-0.7,1.9,2470.322,13.35,0.024,4.8
2020-05-23T03:43:03,42.805,6.029,-0.004,0.005,-0.04,103.0,106.0,101.0,13.4,1505.4,325.7,-0.7,1.8,2470.327,13.35,0.006,321.3
2020-05-23T03:46:03,42.805,6.029,0.007,0.017,-0.029,105.0,106.0,101.0,13.3,1505.4,324.3,-0.7,1.8,2470.368,13.35,0.018,22.4
2020-05-23T03:49:03,42.805,6.029,-0.009,0.002,-0.019,106.0,106.0,102.0,13.3,1505.4,323.3,-0.7,1.8,2470.316,13.35,0.009,282.5
2020-05-23T03:52:03,42.805,6.029,-0.011,0.011,-0.068,102.0,105.0,101.0,13.4,1505.4,324.3,-0.7,1.8,2470.341,13.35,0.015,315.0
2020-05-23T03:55:03,42.805,6.029,-0.001,0.01,-0.014,105.0,106.0,100.0,13.4,1505.4,325.9,-0.7,1.8,2470.332,13.35,0.01,354.3
2020-05-23T03:58:03,42.805,6.029,-0.009,0.015,-0.031,103.0,106.0,101.0,13.3,1505.4,325.0,-0.7,1.8,2470.355,13.35,0.017,329.0
2020-05-23T04:04:03,42.805,6.029,-0.049,0.009,-0.063,104.0,107.0,101.0,13.4,1505.3,326.1,-0.7,1.8,2470.372,13.33,0.049,280.4
2020-05-23T04:07:03,42.805,6.029,-0.059,0.005,-0.064,104.0,105.0,102.0,13.4,1505.4,327.1,-0.7,1.9,2470.345,13.34,0.059,274.8
2020-05-23T04:10:03,42.805,6.029,-0.067,0.021,-0.061,104.0,105.0,102.0,13.4,1505.4,327.2,-0.7,1.8,2470.35,13.34,0.07,287.4
2020-05-23T04:13:03,42.805,6.029,-0.073,-0.021,-0.088,102.0,107.0,101.0,13.4,1505.4,325.6,-0.7,1.9,2470.361,13.34,0.075,254.0
2020-05-23T04:16:03,42.805,6.029,-0.048,0.001,-0.041,106.0,106.0,101.0,13.3,1505.4,324.5,-0.7,1.8,2470.373,13.34,0.048,271.2
2020-05-23T04:19:03,42.805,6.029,-0.006,0.009,-0.022,103.0,108.0,102.0,13.4,1505.4,324.0,-0.7,1.8,2470.36,13.34,0.01,326.3
2020-05-23T04:22:03,42.805,6.029,-0.025,0.031,-0.051,103.0,106.0,101.0,13.4,1505.4,324.4,-0.7,1.8,2470.366,13.34,0.039,321.1
2020-05-23T04:25:03,42.805,6.029,-0.041,0.007,-0.046,104.0,106.0,102.0,13.4,1505.4,324.0,-0.7,1.8,2470.391,13.34,0.041,279.7
2020-05-23T04:28:03,42.805,6.029,-0.048,-0.02,-0.098,104.0,106.0,101.0,13.4,1505.4,323.9,-0.7,1.8,2470.307,13.35,0.052,247.4
2020-05-23T04:31:03,42.805,6.029,-0.022,0.018,-0.056,105.0,108.0,101.0,13.3,1505.4,327.3,-0.7,1.8,2470.414,13.35,0.028,309.3
2020-05-23T04:34:03,42.805,6.029,-0.031,0.018,-0.035,105.0,106.0,101.0,13.4,1505.4,328.0,-0.7,1.8,2470.353,13.35,0.035,300.1
2020-05-23T04:37:03,42.805,6.029,-0.007,0.034,0.01,102.0,106.0,100.0,13.4,1505.4,327.4,-0.7,1.8,2470.411,13.35,0.034,348.4
2020-05-23T04:40:03,42.805,6.029,0.021,0.025,-0.004,102.0,106.0,102.0,13.3,1505.4,328.4,-0.7,1.9,2470.392,13.35,0.032,40.0
2020-05-23T04:43:03,42.805,6.029,0.001,0.014,0.0,104.0,106.0,101.0,13.4,1505.4,327.7,-0.7,1.8,2470.38,13.35,0.014,4.1
2020-05-23T04:46:03,42.805,6.029,-0.025,0.014,-0.032,104.0,107.0,103.0,13.4,1505.4,327.4,-0.7,1.8,2470.419,13.35,0.028,299.3
2020-05-23T04:49:03,42.805,6.029,0.001,0.02,-0.049,106.0,105.0,100.0,13.4,1505.4,328.3,-0.7,1.8,2470.346,13.35,0.02,2.9
2020-05-23T04:52:03,42.805,6.029,-0.044,0.012,-0.039,102.0,107.0,101.0,13.4,1505.4,326.3,-0.7,1.8,2470.405,13.35,0.045,285.3
2020-05-23T04:55:03,42.805,6.029,-0.028,0.009,-0.014,103.0,107.0,101.0,13.4,1505.4,324.1,-0.7,1.8,2470.374,13.35,0.029,287.8
2020-05-23T04:58:03,42.805,6.029,-0.016,0.015,-0.044,106.0,106.0,100.0,13.4,1505.4,323.4,-0.7,1.8,2470.372,13.35,0.021,313.1
2020-05-23T05:04:03,42.805,6.029,-0.052,-0.016,-0.034,103.0,107.0,101.0,13.4,1505.3,326.6,-0.7,1.8,2470.401,13.33,0.054,252.9
2020-05-23T05:07:03,42.805,6.029,-0.029,0.013,-0.028,102.0,107.0,102.0,13.4,1505.3,326.9,-0.7,1.8,2470.424,13.33,0.031,294.1
2020-05-23T05:10:03,42.805,6.029,-0.013,0.001,-0.028,103.0,107.0,100.0,13.4,1505.4,326.2,-0.7,1.8,2470.415,13.34,0.013,274.4
2020-05-23T05:13:03,42.805,6.029,-0.028,-0.004,-0.063,103.0,107.0,100.0,13.4,1505.4,323.7,-0.7,1.8,2470.408,13.34,0.028,261.9
2020-05-23T05:16:03,42.805,6.029,0.013,0.016,-0.031,104.0,107.0,101.0,13.3,1505.4,323.3,-0.7,1.8,2470.38,13.34,0.02,39.1
2020-05-23T05:19:03,42.805,6.029,-0.002,-0.006,-0.049,103.0,107.0,102.0,13.4,1505.4,325.7,-0.7,1.9,2470.436,13.34,0.006,198.4
2020-05-23T05:22:03,42.805,6.029,0.005,0.032,0.001,102.0,107.0,102.0,13.4,1505.4,326.4,-0.7,1.8,2470.411,13.34,0.032,8.9
2020-05-23T05:25:03,42.805,6.029,0.001,-0.005,-0.032,102.0,107.0,101.0,13.4,1505.4,323.5,-0.7,1.8,2470.423,13.35,0.005,168.7
2020-05-23T05:28:03,42.805,6.029,0.008,0.019,-0.036,104.0,107.0,101.0,13.4,1505.4,324.1,-0.7,1.8,2470.421,13.34,0.02,22.8
2020-05-23T05:31:03,42.805,6.029,0.008,0.016,-0.022,106.0,107.0,102.0,13.4,1505.4,327.1,-0.7,1.8,2470.399,13.34,0.017,26.6
2020-05-23T05:34:03,42.805,6.029,-0.03,0.026,0.014,103.0,107.0,102.0,13.4,1505.4,328.2,-0.7,1.8,2470.385,13.35,0.039,310.9
2020-05-23T05:37:03,42.805,6.029,0.009,0.02,-0.011,102.0,107.0,102.0,13.3,1505.4,326.3,-0.7,1.8,2470.395,13.35,0.021,24.2
2020-05-23T05:40:03,42.805,6.029,0.004,0.027,-0.044,102.0,107.0,102.0,13.3,1505.4,324.3,-0.7,1.9,2470.371,13.35,0.027,8.4
2020-05-23T05:43:03,42.805,6.029,-0.019,0.017,-0.032,102.0,106.0,103.0,13.4,1505.4,325.6,-0.7,1.9,2470.424,13.35,0.025,311.8
2020-05-23T05:46:03,42.805,6.029,-0.011,0.013,-0.004,106.0,107.0,101.0,13.4,1505.4,324.1,-0.7,1.8,2470.445,13.35,0.017,319.8
2020-05-23T05:49:03,42.805,6.029,0.004,0.023,-0.007,104.0,106.0,101.0,13.4,1505.4,323.9,-0.7,1.8,2470.426,13.35,0.023,9.9
2020-05-23T05:52:03,42.805,6.029,-0.018,0.024,-0.028,103.0,106.0,101.0,13.4,1505.4,326.3,-0.7,1.9,2470.43,13.35,0.03,323.1
2020-05-23T05:55:03,42.805,6.029,0.016,0.003,-0.003,102.0,106.0,101.0,13.4,1505.4,324.7,-0.7,1.8,2470.448,13.35,0.016,79.4
2020-05-23T05:58:03,42.805,6.029,0.004,-0.003,-0.04,103.0,107.0,101.0,13.4,1505.4,324.3,-0.7,1.8,2470.435,13.35,0.005,126.9
2020-05-23T06:04:03,42.805,6.029,0.003,-0.002,-0.042,102.0,104.0,102.0,13.3,1505.3,323.1,-0.8,1.8,2470.444,13.33,0.003,123.7
2020-05-23T06:07:03,42.805,6.029,-0.008,0.006,-0.006,104.0,106.0,101.0,13.4,1505.3,323.0,-0.7,1.8,2470.452,13.33,0.01,306.9
2020-05-23T06:10:03,42.805,6.029,0.009,0.028,0.004,103.0,106.0,100.0,13.4,1505.4,328.2,-0.7,1.8,2470.475,13.34,0.029,17.8
2020-05-23T06:13:03,42.805,6.029,-0.004,-0.013,-0.051,102.0,106.0,101.0,13.3,1505.4,324.8,-0.7,1.8,2470.455,13.34,0.013,197.1
2020-05-23T06:16:03,42.805,6.029,-0.016,0.011,-0.029,102.0,106.0,101.0,13.3,1505.4,327.2,-0.7,1.8,2470.415,13.34,0.019,304.5
2020-05-23T06:19:03,42.805,6.029,-0.027,0.008,-0.03,105.0,107.0,99.0,13.4,1505.4,324.4,-0.7,1.9,2470.471,13.34,0.028,286.5
2020-05-23T06:22:03,42.805,6.029,-0.024,0.017,-0.049,104.0,107.0,101.0,13.4,1505.4,327.2,-0.7,1.8,2470.48,13.35,0.029,305.3
2020-05-23T06:25:03,42.805,6.029,0.0,0.026,-0.032,105.0,107.0,102.0,13.4,1505.4,325.3,-0.7,1.8,2470.439,13.35,0.026,0.0
2020-05-23T06:28:03,42.805,6.029,0.017,0.008,-0.034,103.0,107.0,102.0,13.4,1505.4,326.3,-0.7,1.8,2470.435,13.35,0.018,64.8
2020-05-23T06:31:03,42.805,6.029,-0.008,0.027,-0.005,104.0,106.0,101.0,13.4,1505.4,323.7,-0.7,1.8,2470.462,13.35,0.028,343.5
2020-05-23T06:34:03,42.805,6.029,0.014,0.008,-0.016,102.0,107.0,100.0,13.4,1505.4,327.1,-0.7,1.9,2470.472,13.35,0.016,60.3
2020-05-23T06:37:03,42.805,6.029,-0.024,0.014,-0.017,102.0,105.0,102.0,13.4,1505.4,326.8,-0.7,1.8,2470.484,13.35,0.027,300.3
2020-05-23T06:40:03,42.805,6.029,-0.002,0.011,-0.051,104.0,105.0,101.0,13.4,1505.4,327.7,-0.7,1.8,2470.449,13.35,0.011,349.7
2020-05-23T06:43:03,42.805,6.029,0.003,0.005,-0.005,106.0,106.0,101.0,13.4,1505.4,324.0,-0.7,1.8,2470.441,13.35,0.005,31.0
2020-05-23T06:46:03,42.805,6.029,-0.007,0.021,-0.028,104.0,106.0,102.0,13.4,1505.4,324.6,-0.7,1.8,2470.41,13.35,0.022,341.6
2020-05-23T06:49:03,42.805,6.029,-0.026,0.041,-0.015,104.0,106.0,101.0,13.3,1505.4,324.6,-0.7,1.8,2470.45,13.35,0.048,327.6
2020-05-23T06:52:03,42.805,6.029,0.004,0.004,-0.007,103.0,105.0,101.0,13.4,1505.4,324.2,-0.7,1.8,2470.427,13.35,0.005,45.0
2020-05-23T06:55:03,42.805,6.029,-0.017,0.004,-0.034,102.0,107.0,101.0,13.3,1505.4,325.3,-0.7,1.9,2470.448,13.35,0.017,283.2
2020-05-23T06:58:03,42.805,6.029,-0.034,-0.009,-0.028,103.0,106.0,101.0,13.4,1505.4,328.2,-0.7,1.8,2470.443,13.35,0.035,255.2
2020-05-23T07:04:03,42.805,6.029,-0.016,0.029,-0.044,104.0,106.0,102.0,13.3,1505.3,326.0,-0.7,1.8,2470.491,13.33,0.033,331.1
2020-05-23T07:07:03,42.805,6.029,-0.011,-0.004,-0.032,103.0,105.0,101.0,13.4,1505.4,324.4,-0.7,1.8,2470.439,13.34,0.011,250.0
2020-05-23T07:10:03,42.805,6.029,-0.007,0.021,-0.002,103.0,106.0,105.0,13.4,1505.4,324.6,-0.7,1.8,2470.483,13.34,0.022,341.6
2020-05-23T07:13:03,42.805,6.029,0.0,0.026,-0.029,103.0,105.0,101.0,13.4,1505.4,325.3,-0.7,1.9,2470.487,13.34,0.026,0.0
2020-05-23T07:16:03,42.805,6.029,-0.006,0.014,-0.053,103.0,106.0,100.0,13.4,1505.4,326.5,-0.7,1.8,2470.481,13.35,0.015,336.8
2020-05-23T07:19:03,42.805,6.029,-0.004,0.02,-0.049,103.0,105.0,101.0,13.4,1505.4,327.8,-0.8,1.9,2470.484,13.35,0.02,348.7
2020-05-23T07:22:03,42.805,6.029,-0.001,0.022,-0.035,102.0,106.0,100.0,13.4,1505.4,326.7,-0.7,1.8,2470.452,13.35,0.022,357.4
2020-05-23T07:25:03,42.805,6.029,0.02,0.017,-0.01,104.0,104.0,100.0,13.3,1505.4,327.4,-0.7,1.9,2470.442,13.35,0.026,49.6
2020-05-23T07:28:03,42.805,6.029,0.006,0.003,-0.023,102.0,105.0,101.0,13.4,1505.4,325.5,-0.7,1.8,2470.468,13.35,0.006,63.4
2020-05-23T07:31:03,42.805,6.029,0.003,0.009,-0.037,103.0,106.0,100.0,13.4,1505.4,325.3,-0.7,1.8,2470.479,13.35,0.009,18.4
2020-05-23T07:34:03,42.805,6.029,-0.001,0.01,-0.028,104.0,105.0,101.0,13.4,1505.4,326.3,-0.7,1.8,2470.482,13.35,0.01,354.3
2020-05-23T07:37:03,42.805,6.029,0.028,0.003,-0.023,102.0,106.0,101.0,13.4,1505.4,323.1,-0.7,1.8,2470.456,13.35,0.028,83.9
2020-05-23T07:40:03,42.805,6.029,0.042,-0.001,-0.052,102.0,105.0,101.0,13.4,1505.4,324.9,-0.7,1.8,2470.448,13.35,0.042,91.4
2020-05-23T07:43:03,42.805,6.029,0.013,-0.009,-0.035,103.0,106.0,102.0,13.4,1505.4,325.4,-0.7,1.8,2470.481,13.35,0.015,124.7
2020-05-23T07:46:03,42.805,6.029,0.013,0.021,-0.047,105.0,104.0,101.0,13.4,1505.4,327.2,-0.7,1.8,2470.419,13.34,0.024,31.8
2020-05-23T07:49:03,42.805,6.029,-0.011,0.018,-0.022,102.0,104.0,102.0,13.3,1505.4,327.1,-0.7,1.8,2470.427,13.34,0.021,328.6
2020-05-23T07:52:03,42.805,6.029,0.012,0.009,-0.039,104.0,106.0,102.0,13.3,1505.4,326.4,-0.7,1.8,2470.455,13.34,0.015,53.1
2020-05-23T07:55:03,42.805,6.029,0.023,0.028,-0.032,103.0,106.0,99.0,13.4,1505.4,327.4,-0.7,1.9,2470.424,13.34,0.036,39.4
2020-05-23T07:58:03,42.805,6.029,-0.002,0.008,-0.015,105.0,105.0,101.0,13.4,1505.4,324.7,-0.7,1.8,2470.435,13.34,0.008,346.0
2020-05-23T08:04:03,42.805,6.029,0.033,0.035,-0.004,103.0,107.0,103.0,13.3,1505.3,325.3,-0.8,1.8,2470.46,13.32,0.048,43.3
2020-05-23T08:07:03,42.805,6.029,-0.004,0.015,-0.025,101.0,107.0,100.0,13.4,1505.3,323.0,-0.7,1.8,2470.484,13.33,0.015,345.1
2020-05-23T08:10:03,42.805,6.029,0.021,0.011,-0.025,101.0,107.0,101.0,13.4,1505.3,326.6,-0.7,1.8,2470.482,13.33,0.023,62.4
2020-05-23T08:13:03,42.805,6.029,0.017,0.011,0.007,103.0,106.0,102.0,13.4,1505.3,325.2,-0.7,1.8,2470.44,13.33,0.02,57.1
2020-05-23T08:16:03,42.805,6.029,0.019,-0.005,0.0,103.0,105.0,103.0,13.4,1505.4,326.8,-0.7,1.8,2470.471,13.34,0.019,104.7
2020-05-23T08:19:03,42.805,6.029,0.008,0.018,-0.011,103.0,105.0,101.0,13.4,1505.4,323.7,-0.7,1.8,2470.435,13.34,0.019,24.0
2020-05-23T08:22:03,42.805,6.029,0.015,0.007,-0.027,105.0,107.0,102.0,13.4,1505.4,328.4,-0.7,1.8,2470.435,13.34,0.016,65.0
2020-05-23T08:25:03,42.805,6.029,0.031,0.029,-0.012,104.0,107.0,101.0,13.4,1505.4,327.0,-0.7,1.8,2470.463,13.34,0.042,46.9
2020-05-23T08:28:03,42.805,6.029,0.034,0.009,-0.031,103.0,105.0,101.0,13.3,1505.4,325.6,-0.7,1.8,2470.46,13.34,0.035,75.2
2020-05-23T08:31:03,42.805,6.029,0.009,0.021,-0.006,102.0,106.0,101.0,13.4,1505.4,322.8,-0.7,1.8,2470.488,13.34,0.022,23.2
2020-05-23T08:34:03,42.805,6.029,0.012,0.017,-0.015,104.0,109.0,102.0,13.4,1505.4,324.2,-0.7,1.8,2470.414,13.34,0.02,35.2
2020-05-23T08:37:03,42.805,6.029,0.023,0.012,-0.027,103.0,107.0,102.0,13.4,1505.4,326.0,-0.7,1.8,2470.493,13.34,0.025,62.4
2020-05-23T08:40:03,42.805,6.029,0.028,0.009,-0.011,103.0,105.0,101.0,13.4,1505.4,327.9,-0.7,1.8,2470.458,13.34,0.029,72.2
2020-05-23T08:43:03,42.805,6.029,0.0,-0.006,-0.007,102.0,107.0,103.0,13.4,1505.4,325.8,-0.7,1.8,2470.438,13.34,0.006,180.0
2020-05-23T08:46:03,42.805,6.029,0.004,0.016,-0.014,104.0,104.0,103.0,13.4,1505.4,323.9,-0.7,1.8,2470.414,13.34,0.016,14.0
2020-05-23T08:49:03,42.805,6.029,0.016,0.001,-0.034,101.0,104.0,101.0,13.4,1505.4,327.2,-0.7,1.8,2470.426,13.34,0.016,86.4
2020-05-23T08:52:03,42.805,6.029,0.012,0.019,-0.013,104.0,105.0,101.0,13.4,1505.4,326.5,-0.7,1.8,2470.394,13.34,0.022,32.3
2020-05-23T08:55:03,42.805,6.029,0.019,0.003,-0.013,103.0,103.0,103.0,13.4,1505.4,326.5,-0.7,1.8,2470.421,13.34,0.019,81.0
2020-05-23T08:58:03,42.805,6.029,0.0,0.019,-0.011,103.0,105.0,102.0,13.4,1505.4,327.6,-0.7,1.9,2470.432,13.34,0.019,0.0
2020-05-23T09:04:03,42.805,6.029,-0.001,0.012,-0.038,104.0,107.0,101.0,13.3,1505.3,323.5,-0.7,1.8,2470.448,13.32,0.012,355.2
2020-05-23T09:07:03,42.805,6.029,0.0,0.003,-0.008,103.0,106.0,101.0,13.4,1505.3,325.0,-0.7,1.8,2470.423,13.33,0.003,0.0
2020-05-23T09:10:03,42.805,6.029,0.007,-0.009,-0.033,103.0,105.0,101.0,13.3,1505.3,323.3,-0.7,1.9,2470.407,13.33,0.011,142.1
2020-05-23T09:13:03,42.805,6.029,0.007,0.002,-0.015,105.0,106.0,102.0,13.4,1505.3,325.6,-0.7,1.8,2470.443,13.33,0.007,74.1
2020-05-23T09:16:03,42.805,6.029,-0.01,0.017,-0.036,104.0,106.0,100.0,13.4,1505.4,323.0,-0.7,1.8,2470.441,13.34,0.019,329.5
2020-05-23T09:19:03,42.805,6.029,0.001,0.0,-0.004,105.0,106.0,102.0,13.3,1505.4,327.6,-0.7,1.8,2470.423,13.34,0.001,90.0
2020-05-23T09:22:03,42.805,6.029,0.026,-0.002,-0.017,103.0,106.0,100.0,13.4,1505.4,325.7,-0.7,1.8,2470.413,13.34,0.026,94.4
2020-05-23T09:25:03,42.805,6.029,0.006,0.023,-0.031,103.0,107.0,102.0,13.3,1505.4,326.4,-0.7,1.8,2470.376,13.34,0.023,14.6
2020-05-23T09:28:03,42.805,6.029,0.007,-0.006,-0.025,105.0,107.0,104.0,13.4,1505.4,323.7,-0.7,1.9,2470.398,13.34,0.009,130.6
2020-05-23T09:31:03,42.805,6.029,0.034,0.001,-0.012,105.0,103.0,101.0,13.4,1505.4,325.8,-0.7,1.8,2470.385,13.34,0.034,88.3
2020-05-23T09:34:03,42.805,6.029,0.019,0.02,-0.01,103.0,105.0,101.0,13.4,1505.4,328.1,-0.7,1.8,2470.412,13.34,0.027,43.5
2020-05-23T09:37:03,42.805,6.029,0.0,0.007,-0.049,104.0,104.0,102.0,13.4,1505.4,327.0,-0.7,1.8,2470.39,13.34,0.007,0.0
2020-05-23T09:40:03,42.805,6.029,0.005,0.016,-0.014,104.0,106.0,101.0,13.4,1505.4,328.3,-0.7,1.9,2470.388,13.34,0.016,17.4
2020-05-23T09:43:03,42.805,6.029,0.007,0.007,0.003,105.0,104.0,101.0,13.4,1505.4,326.7,-0.7,1.9,2470.389,13.34,0.009,45.0
2020-05-23T09:46:03,42.805,6.029,-0.001,0.001,-0.022,104.0,105.0,101.0,13.3,1505.4,327.2,-0.7,1.8,2470.351,13.34,0.001,315.0
2020-05-23T09:49:03,42.805,6.029,0.002,0.017,-0.014,104.0,106.0,101.0,13.4,1505.4,325.0,-0.7,1.8,2470.375,13.34,0.017,6.7
2020-05-23T09:52:03,42.805,6.029,0.02,-0.006,-0.047,102.0,105.0,101.0,13.4,1505.4,325.5,-0.7,1.8,2470.436,13.34,0.02,106.7
2020-05-23T09:55:03,42.805,6.029,0.002,0.01,-0.001,103.0,107.0,100.0,13.4,1505.4,327.3,-0.7,1.8,2470.361,13.34,0.01,11.3
2020-05-23T09:58:03,42.805,6.029,0.041,-0.014,-0.048,103.0,105.0,101.0,13.4,1505.4,326.0,-0.7,1.8,2470.361,13.34,0.043,108.9
2020-05-23T10:04:03,42.805,6.029,0.001,0.02,-0.019,103.0,105.0,102.0,13.4,1505.3,324.0,-0.7,1.9,2470.422,13.32,0.02,2.9